Weather in Sara

Russia / Orenburg Oblast     51°22′48″N   57°49′48″E
temp.,
°C
wind,
m/s
gust,
m/s
humid.,
%
clouds,
%
prec.,
mm/h
press.,
hPa
HPBL,
m
28 january, thu
thu2823:00−10se349082 0.0 103436
02:00−11se449081 0.0 103483
05:00−12se349258 0.0 103378
08:00−13se34927 0.0 103256
11:00−11ese33903 0.0 103268
14:00−9ese46908 0.0 1030162
17:00−10ese46934 0.0 102990
20:00−12ese449043 0.0 102966
29 january, fri
fri2923:00−13ese349071 0.0 102969
02:00−13ese3489100 0.0 102856
05:00−13e3489100 0.0 102756
08:00−13e4689100 0.0 102588
11:00−12e5990100 0.0 1025150
14:00−10ese61188100 0.0 1023222
17:00−9ese61290100 0.0 1021242
20:00−10ese71391100 0.0 1020234
30 january, sat
sat3023:00−9ese61191100 0.1 1019246
02:00−7ese61092100 0.1 1018248
05:00−6ese61096100 1.0 1016289
08:00−8se5995100 0.0 1015190
11:00−6sse3696100 0.9 1015260
14:00−3s2596100 0.3 1015239
17:00−2sw139897 0.4 1016207
20:00−2w229999 0.1 101766
31 january, sun
sun3123:00−3wnw249897 0.1 1018188
02:00−7wsw229788 0.0 101921
05:00−8w229688 0.0 102021
08:00−8nw129241 0.0 102121
11:00−5se128528 0.0 102121
14:00−3se228718 0.0 102187
17:00−5e23879 0.0 102022
20:00−7ese348816 0.0 102138
1 february, mon
mon123:00−8ese5109210 0.0 1021146
02:00−10se48900 0.0 1021122
05:00−10se369618 0.0 102090
08:00−6s5109894 0.0 1019346
11:00−6ssw6128697 0.0 1020308
14:00−6sw61095100 0.1 1019345
17:00−4wsw6996100 0.1 1020610
20:00−4wsw51096100 0.2 1023628